Regional Weather Roundup
Issued by NWS

Home | Current Version | Previous Version | Text Only | Print | Product List | Glossary On
Versions: 1 2 3 4 5 6 7 8 9 10 11 12 13 14 15 16 17 18 19 20 21 22 23 24 25 26 27 28 29 30 31 32 33 34 35 36 37 38 39 40 41 42 43 44 45 46 47 48 49 50
000
ASUS46 KPQR 180610
RWROR

OREGON REGIONAL WEATHER ROUNDUP
NATIONAL WEATHER SERVICE PORTLAND OR
1100 PM PDT WED SEP 17 2014

NOTE: "FAIR" INDICATES FEW OR NO CLOUDS BELOW 12,000 FEET WITH
NO SIGNIFICANT WEATHER AND/OR OBSTRUCTIONS TO VISIBILITY.

ORZ001>013-180700-
NORTHWEST OREGON


CITY           SKY/WX    TMP DP  RH WIND       PRES   REMARKS
ASTORIA        LGT RAIN  59  57  93 E5        29.76R
6HR MIN TEMP:  59; 6HR MAX TEMP:  61; 6HR PCP:  0.12;

NEWPORT        CLOUDY    55  55 100 CALM      29.79F
PORTLAND       CLOUDY    68  59  73 N3        29.74S
6HR MIN TEMP:  67; 6HR MAX TEMP:  77; 6HR PCP: TRACE;

VANCOUVER WA   CLOUDY    67  57  70 N3        29.73F
6HR MIN TEMP:  65; 6HR MAX TEMP:  76; 6HR PCP: TRACE;

SCAPPOOSE      CLOUDY    65  56  72 NW3       29.74S
6HR MIN TEMP:  64; 6HR MAX TEMP:  76; 6HR PCP: TRACE;

HILLSBORO      LGT RAIN  63  59  87 NW5       29.74F
6HR MIN TEMP:  63; 6HR MAX TEMP:  75; 6HR PCP: TRACE;

AURORA         CLOUDY    65  56  72 E5        29.76S
6HR MIN TEMP:  64; 6HR MAX TEMP:  73;

MCMINNVILLE    CLOUDY    64  57  78 CALM      29.75S
6HR MIN TEMP:  62; 6HR MAX TEMP:  72; 6HR PCP: TRACE;

SALEM          CLOUDY    65  57  75 CALM      29.74S
6HR MIN TEMP:  64; 6HR MAX TEMP:  74; 6HR PCP: TRACE;

CORVALLIS      CLOUDY    61  55  82 SE3       29.76S
EUGENE         CLOUDY    61  56  83 SW7       29.75S
6HR MIN TEMP:  60; 6HR MAX TEMP:  70; 6HR PCP: TRACE;

$$

ORZ021-028-180700-
SOUTHWEST OREGON


CITY           SKY/WX    TMP DP  RH WIND       PRES   REMARKS
NORTH BEND     MOCLDY    59  59 100 CALM      29.75F
6HR MIN TEMP:  59; 6HR MAX TEMP:  61;

BROOKINGS      MOCLDY    61  57  86 VRB5      29.73S
ROSEBURG       CLOUDY    62  54  74 CALM      29.75R
6HR MIN TEMP:  62; 6HR MAX TEMP:  72; 6HR PCP: TRACE;

SEXTON SUMMIT  CLOUDY    54  48  80 SE6       29.81S
6HR MIN TEMP:  51; 6HR MAX TEMP:  60; 6HR PCP:  0.08;

MEDFORD        CLOUDY    67  52  58 S8        29.74F
6HR MIN TEMP:  67; 6HR MAX TEMP:  80; 6HR PCP: TRACE;

$$

ORZ009-041-180700-
COLUMBIA GORGE


CITY           SKY/WX    TMP DP  RH WIND       PRES   REMARKS
TROUTDALE      CLOUDY    65  58  78 SE5       29.73S
6HR MIN TEMP:  65; 6HR MAX TEMP:  76;

THE DALLES     CLOUDY    73  51  46 NW16      29.65F
6HR MIN TEMP:  72; 6HR MAX TEMP:  82;

$$

ORZ029>031-042>050-061>064-180700-
EASTERN OREGON


CITY           SKY/WX    TMP DP  RH WIND       PRES   REMARKS
REDMOND        CLOUDY    65  37  35 NW8       29.78R
6HR MIN TEMP:  65; 6HR MAX TEMP:  84;

BEND           CLOUDY    64  41  42 CALM      29.81R
KLAMATH FALLS  MOCLDY    63  38  39 W10       29.85R
6HR MIN TEMP:  63; 6HR MAX TEMP:  76;

LAKEVIEW       MOCLDY    63  34  34 S15       29.89R
HERMISTON      MOCLDY    71  45  39 SW9       29.62R
6HR MIN TEMP:  63; 6HR MAX TEMP:  85;

PENDLETON      PTCLDY    66  38  35 S8        29.64S
6HR MIN TEMP:  66; 6HR MAX TEMP:  86;

JOHN DAY       CLOUDY    74  30  19 W14G28    29.75R
MEACHAM        PTCLDY    50  36  58 CALM      29.77F
6HR MIN TEMP:  50; 6HR MAX TEMP:  80;

LA GRANDE      MOCLDY    61  34  36 N6        29.69F
6HR MIN TEMP:  61; 6HR MAX TEMP:  82;

BAKER CITY     CLOUDY    56  41  57 SE3       29.73F
6HR MIN TEMP:  56; 6HR MAX TEMP:  87;

BURNS          CLOUDY    69  34  27 SE6       29.80S
6HR MIN TEMP:  64; 6HR MAX TEMP:  85;

ROME             N/A     72  33  24 SE12      29.79S
6HR MIN TEMP:  70; 6HR MAX TEMP:  90;

ONTARIO        MOCLDY    67  45  45 SW9       29.67S
6HR MIN TEMP:  65; 6HR MAX TEMP:  90;

$$


USA.gov is the U.S. government's official web portal to all federal, state and local government web resources and services.